Zurück zum Katalog

FENGYUN 1C DEB

AktivSSO
NORAD 31285·DEBRIS·🇨🇳 China

Gestartet May 10, 1999 von Taiyuan Satellite Launch Center

Loading…

Nächste Überflüge (nächste 24 Stunden)

TLE

AktuellSource: Space-Track

Epoche: Sep 13, 2026, 04:19 UTC

1 31285U 99025BNT 26256.18045434  .00000350  00000-0  13287-3 0  9996
2 31285  98.5491 234.8267 0200205 103.5862 319.6704 14.26387929 11950

Verfolge FENGYUN 1C DEB in Echtzeit mit AllMySat

Download on the App Store